Tracy, MN

2:07 PM CDT on April 25, 2017 (GMT -0500)
Tracy

Weather History for KTKC - September, 2012

Change the Weather History Date:

Wednesday, September 19, 2012

  Actual Average (KMML) Record (KMML)
Temperature  
Mean Temperature 60 °F -  
Max Temperature 72 °F 73 °F 96 °F (1984)
Min Temperature 50 °F 49 °F 30 °F (1991)
Degree Days  
Heating Degree Days 4    
Growing Degree Days 10 (Base 50)    
Moisture  
Dew Point 35 °F    
Average Humidity 41    
Maximum Humidity 67    
Minimum Humidity 22    
Precipitation  
Precipitation 0.00 in - - ()
Sea Level Pressure  
Sea Level Pressure 29.79 in    
Wind  
Wind Speed 16 mph (West)    
Max Wind Speed 26 mph    
Max Gust Speed 37 mph    
Visibility 10 miles    
Events      
Averages and records for this station are not official NWS values.
T = Trace of Precipitation, MM = Missing Value Source: NWS Daily Summary

Daily Weather History Graph

Daily Weather History Graph

Search for Another Location

Airport or City:

Trip Planner

Search our weather history database for the weather conditions in past years. The results will help you decide how hot, cold, wet, or windy it might be!

Date:

Astronomy

Sep. 19, 2012 Rise Set
Actual Time 7:06 AM CDT 7:24 PM CDT
Civil Twilight 6:37 AM CDT 7:53 PM CDT
Nautical Twilight 6:03 AM CDT 8:27 PM CDT
Astronomical Twilight 5:28 AM CDT 9:02 PM CDT
Moon 11:29 AM CDT (9/19) 9:22 PM CDT (9/19)
Length of Visible Light 13h 15m
Length of Day
12h 17m
Waxing Crescent, 17% of the Moon is Illuminated
Sep 19
Waxing Crescent
Sep 22
First Quarter
Sep 29
Full
Oct 8
Last Quarter
Oct 15
New

Hourly Weather History & Observations

Time (CDT) Temp. Dew Point Humidity Pressure Visibility Wind Dir Wind Speed Gust Speed Precip Events Conditions
12:14 AM 53.2 °F 33.3 °F 47% 29.81 in 10.0 mi SSW 16.1 mph 23.0 mph N/A   Clear
12:54 AM 52.7 °F 34.3 °F 50% 29.80 in 10.0 mi SSW 16.1 mph - N/A   Clear
1:14 AM 53.6 °F 34.9 °F 49% 29.79 in 10.0 mi SSW 17.3 mph 24.2 mph N/A   Clear
1:34 AM 54.0 °F 35.6 °F 50% 29.78 in 10.0 mi SSW 16.1 mph 23.0 mph N/A   Clear
1:54 AM 54.7 °F 36.1 °F 50% 29.77 in 10.0 mi SSW 17.3 mph 21.9 mph N/A   Clear
2:14 AM 55.9 °F 37.2 °F 49% 29.77 in 10.0 mi SSW 17.3 mph 28.8 mph N/A   Clear
2:34 AM 56.3 °F 38.1 °F 51% 29.75 in 10.0 mi SSW 19.6 mph 28.8 mph N/A   Clear
2:54 AM 55.6 °F 38.7 °F 53% 29.75 in 10.0 mi SSW 19.6 mph 26.5 mph N/A   Clear
3:14 AM 55.4 °F 39.6 °F 55% 29.74 in 10.0 mi SSW 19.6 mph 25.3 mph N/A   Clear
3:34 AM 55.6 °F 39.7 °F 55% 29.72 in 10.0 mi SW 19.6 mph 28.8 mph N/A   Clear
3:54 AM 55.6 °F 40.1 °F 56% 29.73 in 10.0 mi SW 19.6 mph 25.3 mph N/A   Clear
4:14 AM 55.4 °F 40.5 °F 57% 29.72 in 10.0 mi SW 17.3 mph - N/A   Clear
4:54 AM 55.4 °F 41.0 °F 58% 29.71 in 10.0 mi SW 17.3 mph 25.3 mph N/A   Clear
5:14 AM 54.9 °F 41.0 °F 60% 29.70 in 10.0 mi SW 17.3 mph 23.0 mph N/A   Clear
5:34 AM 54.9 °F 41.4 °F 60% 29.70 in 10.0 mi SW 17.3 mph 21.9 mph N/A   Clear
5:54 AM 54.9 °F 41.7 °F 61% 29.69 in 10.0 mi SW 18.4 mph - N/A   Clear
6:14 AM 54.9 °F 41.9 °F 62% 29.69 in 10.0 mi SW 16.1 mph 24.2 mph N/A   Clear
6:34 AM 54.5 °F 42.3 °F 63% 29.69 in 10.0 mi SW 15.0 mph 19.6 mph N/A   Clear
6:54 AM 54.3 °F 42.4 °F 64% 29.69 in 10.0 mi SW 17.3 mph 23.0 mph N/A   Clear
7:14 AM 53.4 °F 42.3 °F 66% 29.69 in 10.0 mi SW 15.0 mph 23.0 mph N/A   Clear
7:34 AM 52.9 °F 42.1 °F 67% 29.70 in 10.0 mi SW 13.8 mph 19.6 mph N/A   Clear
7:54 AM 53.6 °F 41.9 °F 65% 29.69 in 10.0 mi SW 16.1 mph - N/A   Clear
8:15 AM 55.4 °F 42.4 °F 62% 29.69 in 10.0 mi SW 13.8 mph 21.9 mph N/A   Clear
8:34 AM 55.9 °F 42.1 °F 60% 29.70 in 10.0 mi WSW 10.4 mph 19.6 mph N/A   Clear
8:54 AM 57.7 °F 41.9 °F 56% 29.73 in 10.0 mi NNW 11.5 mph 21.9 mph N/A   Clear
9:15 AM 60.1 °F 41.5 °F 50% 29.72 in 10.0 mi Calm Calm - N/A   Clear
9:54 AM 65.3 °F 41.0 °F 41% 29.71 in 10.0 mi WNW 8.1 mph - N/A   Clear
10:34 AM 67.3 °F 40.1 °F 37% 29.74 in 10.0 mi NW 15.0 mph 20.7 mph N/A   Clear
10:54 AM 68.0 °F 40.3 °F 36% 29.75 in 10.0 mi NW 16.1 mph 21.9 mph N/A   Clear
11:15 AM 68.9 °F 39.7 °F 35% 29.75 in 10.0 mi NNW 19.6 mph 25.3 mph N/A   Clear
11:34 AM 69.4 °F 37.9 °F 32% 29.75 in 10.0 mi NNW 23.0 mph 28.8 mph N/A   Clear
11:54 AM 70.5 °F 37.6 °F 30% 29.75 in 10.0 mi NNW 13.8 mph 26.5 mph N/A   Clear
12:14 PM 70.7 °F 37.4 °F 30% 29.77 in 10.0 mi NW 18.4 mph 29.9 mph N/A   Clear
12:34 PM 71.6 °F 36.0 °F 27% 29.77 in 10.0 mi NW 19.6 mph 27.6 mph N/A   Clear
12:54 PM 71.6 °F 34.2 °F 25% 29.77 in 10.0 mi NW 18.4 mph 29.9 mph N/A   Clear
1:13 PM 71.6 °F 35.1 °F 26% 29.78 in 10.0 mi NW 21.9 mph 31.1 mph N/A   Clear
1:33 PM 71.4 °F 34.0 °F 25% 29.78 in 10.0 mi NW 19.6 mph 31.1 mph N/A   Clear
1:54 PM 71.4 °F 36.5 °F 28% 29.78 in 10.0 mi NW 19.6 mph 29.9 mph N/A   Clear
2:13 PM 71.2 °F 34.7 °F 26% 29.79 in 10.0 mi NW 20.7 mph 32.2 mph N/A   Clear
2:34 PM 70.5 °F 35.6 °F 28% 29.79 in 10.0 mi NW 20.7 mph 33.4 mph N/A   Clear
2:54 PM 71.6 °F 34.2 °F 25% 29.80 in 10.0 mi NW 20.7 mph 33.4 mph N/A   Scattered Clouds
3:14 PM 71.4 °F 32.0 °F 23% 29.80 in 10.0 mi NW 25.3 mph 33.4 mph N/A   Scattered Clouds
3:34 PM 70.7 °F 32.0 °F 24% 29.81 in 10.0 mi NW 24.2 mph 33.4 mph N/A   Clear
3:54 PM 70.0 °F 31.6 °F 24% 29.82 in 10.0 mi NW 19.6 mph 31.1 mph N/A   Clear
4:15 PM 69.6 °F 31.6 °F 24% 29.82 in 10.0 mi NNW 25.3 mph 34.5 mph N/A   Clear
4:34 PM 68.9 °F 28.2 °F 22% 29.82 in 10.0 mi NW 21.9 mph 36.8 mph N/A   Clear
4:54 PM 68.5 °F 28.4 °F 22% 29.84 in 10.0 mi NW 26.5 mph 34.5 mph N/A   Clear
5:15 PM 68.0 °F 28.2 °F 23% 29.84 in 10.0 mi NW 18.4 mph 33.4 mph N/A   Clear
5:34 PM 67.5 °F 28.4 °F 23% 29.84 in 10.0 mi NNW 18.4 mph 31.1 mph N/A   Clear
5:54 PM 66.6 °F 27.5 °F 23% 29.85 in 10.0 mi NW 20.7 mph 32.2 mph N/A   Clear
6:14 PM 65.7 °F 26.6 °F 23% 29.86 in 10.0 mi NW 20.7 mph 27.6 mph N/A   Clear
6:34 PM 64.6 °F 25.5 °F 23% 29.86 in 10.0 mi NW 16.1 mph 26.5 mph N/A   Clear
6:54 PM 63.5 °F 26.2 °F 24% 29.87 in 10.0 mi NW 11.5 mph 24.2 mph N/A   Clear
7:14 PM 62.1 °F 27.0 °F 26% 29.87 in 10.0 mi NW 12.7 mph 23.0 mph N/A   Clear
7:34 PM 61.0 °F 26.6 °F 27% 29.88 in 10.0 mi NW 8.1 mph 17.3 mph N/A   Clear
8:14 PM 56.8 °F 28.0 °F 33% 29.90 in 10.0 mi WNW 6.9 mph - N/A   Clear
8:34 PM 55.8 °F 28.6 °F 35% 29.91 in 10.0 mi WNW 6.9 mph - N/A   Clear
8:54 PM 54.9 °F 29.3 °F 38% 29.91 in 10.0 mi NW 8.1 mph - N/A   Clear
9:14 PM 55.0 °F 29.3 °F 37% 29.92 in 10.0 mi WNW 5.8 mph - N/A   Clear
9:34 PM 55.0 °F 29.3 °F 37% 29.92 in 10.0 mi WNW 5.8 mph - N/A   Clear
9:54 PM 55.4 °F 29.3 °F 37% 29.92 in 10.0 mi WNW 5.8 mph - N/A   Clear
10:14 PM 54.7 °F 30.7 °F 40% 29.92 in 10.0 mi West 5.8 mph - N/A   Clear
10:34 PM 53.6 °F 31.1 °F 42% 29.93 in 10.0 mi West 5.8 mph - N/A   Clear
10:54 PM 52.7 °F 31.8 °F 45% 29.94 in 10.0 mi West 4.6 mph - N/A   Clear
11:34 PM 50.9 °F 32.0 °F 48% 29.94 in 10.0 mi West 5.8 mph - N/A   Clear
11:54 PM 50.5 °F 31.8 °F 49% 29.94 in 10.0 mi West 5.8 mph - N/A   Clear